[[{"header":{"parameterUnit":"m.s-1","parameterCategory":1,"la1":30.2991,"la2":30.254,"lo1":-89.0895,"lo2":-89.0444,"dy":0.0017,"dx":0.0017,"nx":28,"ny":28,"refTime":"2024-07-11T09:00:00:Z","depth":0,"parameterNumber":2,"parameterNumberName":"U-component_of_WINDS"},"data":[0,0,0,0,0,0,0,0,0,0,0,0,0,0,0,0,0,0,0,0,0,0,0,0,0,0,0,0,0,0,0,0,0,0,0,0,0,0,0,0,0,0,0,0,0,0,0,0,0,0,0,0,0,0,0,0,0,0,3.0635,3.0636,0,3.0743,3.0745,3.0746,3.0705,3.0703,3.07,3.0698,3.081,3.0815,3.082,0,0,0,0,0,0,0,0,0,0,0,0,0,3.0391,3.0396,3.0635,3.0636,3.0637,3.0743,3.0745,3.0746,3.0706,3.0703,3.07,3.0697,3.0808,3.0814,3.0821,0,0,0,0,0,0,0,0,0,0,0,0,0,3.0498,3.0397,3.0634,3.063,3.0631,3.0743,3.0745,3.0746,3.0706,3.0703,3.0699,3.0695,3.0806,3.0814,3.0821,3.0945,0,0,3.0846,3.0849,0,0,0,0,0,0,0,0,3.0492,3.0507,3.0629,3.063,3.0631,3.0707,3.07,3.0813,3.0707,3.0678,3.0698,3.0694,3.0779,3.0789,3.0817,3.095,3.0955,3.0846,3.0851,3.0855,3.0857,0,0,0,0,0,0,0,3.0485,3.0502,3.0678,3.0631,3.0632,3.0622,3.0633,3.0721,3.0748,3.068,3.0677,3.0691,3.0778,3.081,3.0819,3.0956,3.0846,3.0853,3.0858,3.0861,3.1194,3.1198,0,0,0,0,0,0,3.0477,3.0496,3.0674,3.0681,3.0551,3.063,3.0642,3.0686,3.0747,3.0752,3.0694,3.0688,3.0798,3.081,3.0823,3.097,3.0855,3.0862,3.0867,3.119,3.1195,3.1199,0,0,0,0,0,0,3.0472,3.0493,3.067,3.0588,3.061,3.0638,3.0688,3.0691,3.0721,3.0757,3.0761,3.0721,3.0795,3.0812,3.0914,3.0973,3.0866,3.0873,3.1185,3.1191,3.1197,3.1265,0,0,0,0,0,0,3.0465,3.0492,3.0539,3.0589,3.0614,3.076,3.0692,3.0695,3.0735,3.0729,3.0783,3.0789,3.0794,3.0903,3.0922,3.0982,3.0879,3.118,3.1188,3.1195,3.1258,3.1273,3.1286,0,0,0,0,0,3.0457,3.0555,3.0542,3.0563,3.0674,3.0763,3.0777,3.0781,3.074,3.0788,3.081,3.0787,3.0964,3.0913,3.0935,3.0998,3.1176,3.1185,3.1194,3.1252,3.127,3.1286,0,0,0,0,0,0,3.0511,3.0561,3.0547,3.0665,3.071,3.0756,3.0816,3.08,3.0858,3.085,3.0852,3.0865,3.097,3.0995,3.0938,3.112,3.1064,3.1078,3.11,3.1118,3.1131,3.1123,3.0886,0,0,0,0,0,3.0537,3.0605,3.0645,3.0744,3.0768,3.0788,3.0827,3.0826,3.0873,3.0892,3.0922,3.0968,3.1034,3.1077,3.114,3.1261,3.1272,3.1315,3.1329,3.1341,3.1353,3.1417,3.1436,3.1229,3.1229,3.1229,0,0,3.0591,3.0626,3.0669,3.0756,3.0791,3.0861,3.0805,3.0882,3.0933,3.0904,3.1001,3.1025,3.1077,3.1189,3.124,3.1212,3.1412,3.1352,3.1361,3.1367,3.1428,3.1448,3.1465,3.1235,3.1234,3.1233,0,0,3.0724,3.0759,3.0844,3.088,3.0933,3.0946,3.0966,3.1015,3.1029,3.1127,3.1106,3.1168,3.1281,3.1319,3.1352,3.1498,3.1479,3.1519,3.1592,3.1654,3.1671,3.1685,3.1736,3.1754,3.1531,3.1531,3.1531,0,3.0784,3.0889,3.0891,3.0969,3.1007,3.0983,3.1069,3.1104,3.1175,3.1202,3.117,3.1311,3.1345,3.1464,3.1499,3.1528,3.1551,3.1512,3.1668,3.1683,3.1696,3.1744,3.1764,3.1535,3.1535,3.1534,3.1534,0,3.0959,3.1032,3.1095,3.1163,3.1209,3.1291,3.1304,3.135,3.1345,3.136,3.146,3.1499,3.1568,3.1597,3.1593,3.1715,3.1696,3.1667,3.161,3.172,3.1765,3.1784,3.1541,3.154,3.1539,3.1537,0,0,3.1131,3.1198,3.1221,3.1251,3.1307,3.1363,3.1444,3.1511,3.1549,3.1599,3.1665,3.1762,3.1734,3.1772,3.1772,3.1827,3.1938,3.1791,3.1792,3.1815,3.2074,3.2095,3.2116,3.1926,3.1929,3.1932,3.2069,0,3.1268,3.1409,3.1412,3.154,3.1607,3.1584,3.1654,3.1695,3.1712,3.1771,3.1789,3.1856,3.1816,3.1838,3.1892,3.1913,3.199,3.1904,3.1987,3.199,3.1974,3.214,3.2163,3.2291,3.2087,3.209,3.2092,0,3.1447,3.1501,3.1636,3.1681,3.1709,3.1771,3.1832,3.1889,3.1935,3.1943,3.1985,3.1976,3.2058,3.1999,3.211,3.2051,3.2085,3.2101,3.2106,3.2113,3.2047,3.2151,3.2332,3.235,3.212,3.2118,3.2116,0,3.1556,3.1663,3.1757,3.1784,3.1839,3.1883,3.1908,3.1951,3.199,3.2044,3.2069,3.2131,3.2165,3.2214,3.2221,3.2178,3.2332,3.2275,3.2341,3.234,3.2374,3.2371,3.2561,3.2398,3.2397,3.2397,3.2397,0,3.1709,3.1792,3.1807,3.1865,3.1957,3.1959,3.2051,3.2072,3.211,3.2171,3.2155,3.2213,3.222,3.228,3.2287,3.2377,3.2393,3.2401,3.2401,3.2402,3.24,3.2423,3.2414,3.2402,3.2401,3.24,3.2399,0,3.1847,3.1861,3.1961,3.2005,3.2017,3.2083,3.212,3.2175,3.2189,3.2267,3.2285,3.2308,3.2377,3.2389,3.2471,3.2475,3.2583,3.2575,3.2567,3.2565,3.263,3.2623,3.284,3.2868,3.2688,3.269,3.2691,0,3.1942,3.2006,3.2055,3.2095,3.2121,3.2186,3.2225,3.223,3.2272,3.2328,3.2376,3.2443,3.2497,3.2608,3.2632,3.2694,3.2687,3.2759,3.2696,3.2694,3.2686,3.2682,3.2688,3.2771,3.2773,3.2774,3.2775,0,3.211,3.2113,3.2171,3.2231,3.2279,3.2327,3.2372,3.2405,3.2415,3.2463,3.2533,3.2575,3.2657,3.2724,3.2785,3.281,3.2795,3.2795,3.2813,3.2814,3.2806,3.2809,3.2598,3.279,3.2788,3.2787,3.2787,3.2786,3.2229,3.2284,3.2326,3.2391,3.2425,3.2467,3.252,3.254,3.2599,3.2666,3.2665,3.2741,3.2784,3.2865,3.2894,3.2953,3.293,3.2957,3.2964,3.297,3.2975,3.2797,3.2965,3.2964,3.2964,3.2964,3.2963,0,3.2395,3.2421,3.248,3.2543,3.2593,3.2574,3.2622,3.2665,3.2732,3.2774,3.2827,3.2906,3.297,3.2998,3.3061,3.3103,3.3097,3.3119,3.3115,3.3121,3.2993,3.297,3.3123,3.3123,3.3123,3.3122,3.3122,3.3122,3.2487,3.2577,3.2585,3.2692,3.2717,3.2791,3.282,3.2859,3.2891,3.298,3.3033,3.3051,3.3087,3.3151,3.3209,3.3215,3.3239,3.3264,3.3267,3.3147,3.3131,3.3115,3.3094,3.3269,3.327,3.339,3.3391,3.3392]},{"header":{"parameterUnit":"m.s-1","parameterCategory":1,"la1":30.2991,"la2":30.254,"lo1":-89.0895,"lo2":-89.0444,"dy":0.0017,"dx":0.0017,"nx":28,"ny":28,"refTime":"2024-07-11T09:00:00:Z","depth":0,"parameterNumber":3,"parameterNumberName":"V-component_of_WINDS"},"data":[0,0,0,0,0,0,0,0,0,0,0,0,0,0,0,0,0,0,0,0,0,0,0,0,0,0,0,0,0,0,0,0,0,0,0,0,0,0,0,0,0,0,0,0,0,0,0,0,0,0,0,0,0,0,0,0,0,0,0.0133,0.0132,0,0.0052,0.0051,0.005,-0.0023,-0.0024,-0.0025,-0.0026,-0.0107,-0.0108,-0.011,0,0,0,0,0,0,0,0,0,0,0,0,0,0.0225,0.0223,0.0133,0.0132,0.0131,0.0052,0.0051,0.005,-0.0023,-0.0024,-0.0025,-0.0026,-0.0107,-0.0108,-0.011,0,0,0,0,0,0,0,0,0,0,0,0,0,0.0169,0.0223,0.0133,0.0085,0.008,0.0053,0.0051,0.005,-0.0023,-0.0024,-0.0025,-0.0026,-0.0106,-0.0108,-0.011,-0.0096,0,0,-0.0116,-0.0117,0,0,0,0,0,0,0,0,0.0172,0.0165,0.0093,0.0089,0.0083,0.0023,0.0054,0.0001,-0.0022,0.0016,-0.0026,-0.0027,-0.0063,-0.0068,-0.008,-0.01,-0.0103,-0.0116,-0.0118,-0.0119,-0.0119,0,0,0,0,0,0,0,0.0176,0.0168,0.0101,0.0092,0.0086,0.0068,0.0058,0.0043,-0.0015,0.0013,0.0007,-0.0001,-0.0066,-0.0078,-0.0083,-0.0105,-0.0116,-0.0118,-0.0119,-0.012,-0.0118,-0.0116,0,0,0,0,0,0,0.0187,0.0172,0.0104,0.0099,0.0125,0.0067,0.0057,0.0044,-0.0015,-0.0025,0.0,-0.0004,-0.0074,-0.008,-0.0086,-0.0074,-0.0119,-0.012,-0.0122,-0.0119,-0.0117,-0.0116,0,0,0,0,0,0,0.0189,0.0182,0.0107,0.0134,0.0123,0.0067,0.0053,0.0043,0.003,-0.0024,-0.0035,-0.0002,-0.0076,-0.0083,-0.0093,-0.0078,-0.0121,-0.0123,-0.012,-0.0118,-0.0117,-0.0048,0,0,0,0,0,0,0.0192,0.0183,0.0188,0.0135,0.0122,0.0102,0.0054,0.0042,0.0027,0.002,-0.0029,-0.0039,-0.0077,-0.009,-0.0095,-0.0081,-0.0125,-0.0122,-0.012,-0.0117,-0.0052,-0.0044,-0.0038,0,0,0,0,0,0.0196,0.0211,0.0189,0.0181,0.0127,0.0103,0.0095,0.0051,0.0028,0.0033,-0.0003,-0.0037,-0.0079,-0.009,-0.0097,-0.0083,-0.0123,-0.012,-0.0117,-0.0056,-0.0046,-0.0038,0,0,0,0,0,0,0.0268,0.0203,0.0178,0.0176,0.0145,0.009,0.0095,0.0062,0.0038,0.0033,-0.0021,-0.0032,-0.0036,-0.0061,-0.0073,-0.0073,-0.0106,-0.0104,-0.0056,-0.0048,-0.0041,-0.0034,-0.0126,0,0,0,0,0,0.0284,0.0269,0.0213,0.0217,0.0203,0.0151,0.0139,0.0107,0.0073,0.006,0.0024,-0.0007,-0.0027,-0.0039,-0.0061,-0.0057,-0.0069,-0.0051,-0.0044,-0.0037,-0.0035,-0.0035,-0.0028,-0.0106,-0.0107,-0.0107,0,0,0.0316,0.0279,0.0273,0.023,0.0203,0.0189,0.0141,0.0129,0.0118,0.0059,0.0047,0.0019,-0.0019,-0.0022,-0.0026,-0.0043,-0.0016,-0.0034,-0.0028,-0.0029,-0.0031,-0.0024,-0.0017,-0.0105,-0.0105,-0.0105,0,0,0.0369,0.0339,0.0338,0.0311,0.027,0.0235,0.0236,0.0185,0.0164,0.0151,0.0106,0.0092,0.0059,0.0033,0.0016,0.0056,0.0024,0.0051,0.009,0.009,0.0096,0.0101,0.0116,0.0122,0.0053,0.0053,0.0053,0,0.0415,0.0392,0.0342,0.0333,0.0315,0.0259,0.0258,0.0235,0.0189,0.0178,0.0158,0.0114,0.0085,0.0074,0.0084,0.0072,0.007,0.0057,0.0099,0.0104,0.0108,0.0122,0.0127,0.0057,0.0056,0.0056,0.0056,0,0.045,0.0435,0.044,0.0396,0.0379,0.0374,0.0323,0.0312,0.0281,0.0248,0.0235,0.0197,0.0167,0.0162,0.0132,0.0147,0.0137,0.0109,0.0076,0.012,0.0132,0.0137,0.0062,0.0061,0.006,0.0059,0,0,0.0548,0.0476,0.0478,0.0457,0.0407,0.0394,0.0386,0.0355,0.0347,0.0316,0.0308,0.028,0.0253,0.0234,0.02,0.02,0.0235,0.0172,0.017,0.0185,0.0249,0.0272,0.0278,0.0212,0.0213,0.0213,0.0253,0,0.0592,0.0575,0.0529,0.0525,0.0511,0.0456,0.0449,0.0417,0.0386,0.0369,0.0335,0.0316,0.0282,0.027,0.0267,0.0231,0.0247,0.0228,0.0205,0.0204,0.0217,0.0284,0.0308,0.0347,0.0257,0.0258,0.0258,0,0.0643,0.0615,0.061,0.0559,0.0551,0.0545,0.0513,0.0497,0.046,0.0437,0.0414,0.0377,0.0365,0.0333,0.0316,0.0303,0.0291,0.0272,0.0272,0.0269,0.0235,0.0284,0.0359,0.0365,0.0265,0.0264,0.0264,0,0.0715,0.0676,0.0668,0.0652,0.0592,0.0589,0.0564,0.0525,0.051,0.0481,0.047,0.0441,0.0426,0.0404,0.0359,0.034,0.0347,0.0312,0.0328,0.033,0.0334,0.0334,0.0408,0.0324,0.0324,0.0324,0.0324,0,0.077,0.0769,0.0699,0.0695,0.0692,0.0639,0.0637,0.0607,0.0573,0.0561,0.0512,0.0502,0.0443,0.0426,0.039,0.0382,0.0375,0.0356,0.0347,0.0361,0.0364,0.0353,0.035,0.0325,0.0325,0.0325,0.0325,0,0.0851,0.0804,0.0792,0.0736,0.0722,0.0722,0.0674,0.0667,0.0632,0.0618,0.0611,0.0557,0.0534,0.0487,0.0452,0.0428,0.0428,0.0411,0.0441,0.0435,0.0455,0.0454,0.0525,0.0532,0.0444,0.0445,0.0445,0,0.089,0.0888,0.0831,0.082,0.0796,0.0778,0.0762,0.0709,0.0694,0.065,0.0648,0.0621,0.0597,0.0564,0.0521,0.0493,0.0476,0.0503,0.0472,0.0486,0.0477,0.0478,0.0478,0.051,0.0512,0.0513,0.0513,0,0.0964,0.0941,0.0918,0.0888,0.0869,0.0842,0.0813,0.0807,0.0747,0.0732,0.0708,0.0689,0.0652,0.0626,0.0592,0.0566,0.053,0.0523,0.0526,0.0541,0.0558,0.055,0.0461,0.0522,0.0521,0.0521,0.052,0.052,0.1025,0.1021,0.098,0.0957,0.0929,0.0902,0.0893,0.0856,0.0835,0.0801,0.0771,0.075,0.0711,0.0661,0.0637,0.062,0.0602,0.0606,0.0607,0.0609,0.0615,0.056,0.0613,0.0613,0.0612,0.0612,0.0612,0,0.1097,0.1068,0.1047,0.1007,0.0989,0.0955,0.0921,0.0908,0.0889,0.0856,0.0833,0.0805,0.0779,0.0734,0.0704,0.0699,0.0681,0.0693,0.0693,0.0688,0.0632,0.0633,0.0707,0.0707,0.0707,0.0707,0.0707,0.0707,0.1133,0.1123,0.1095,0.1071,0.1041,0.1019,0.1003,0.0978,0.0951,0.0922,0.09,0.087,0.0832,0.0799,0.0774,0.0761,0.0753,0.077,0.0752,0.0701,0.0692,0.0683,0.0684,0.0768,0.0768,0.0809,0.0809,0.081]}]]